Immokalee Regional Airport [I, FL

9:03 AM EST on November 24, 2017 (GMT -0500)
Immokalee

Weather History for KIMM - February, 2014

Change the Weather History Date:

Sunday, February 2, 2014

  Actual Average (KRSW) Record (KRSW)
Temperature  
Mean Temperature 74 °F -  
Max Temperature 89 °F 76 °F 88 °F (1990)
Min Temperature 60 °F 55 °F 35 °F (1951)
Cooling Degree Days 10    
Growing Degree Days 24 (Base 50)    
Moisture  
Dew Point 65 °F    
Average Humidity 64    
Maximum Humidity 100    
Minimum Humidity 31    
Precipitation  
Precipitation 0.00 in - - ()
Sea Level Pressure  
Sea Level Pressure 30.11 in    
Wind  
Wind Speed 3 mph (ESE)    
Max Wind Speed 12 mph    
Max Gust Speed 23 mph    
Visibility 7 miles    
Events      
Averages and records for this station are not official NWS values.
T = Trace of Precipitation, MM = Missing Value Source: NWS Daily Summary

Daily Weather History Graph

Daily Weather History Graph

Search for Another Location

Airport or City:

Trip Planner

Search our weather history database for the weather conditions in past years. The results will help you decide how hot, cold, wet, or windy it might be!

Date:

Astronomy

Feb. 02, 2014 Rise Set
Actual Time 7:09 AM EST 6:09 PM EST
Civil Twilight 6:45 AM EST 6:33 PM EST
Nautical Twilight 6:18 AM EST 7:00 PM EST
Astronomical Twilight 5:50 AM EST 7:28 PM EST
Moon 8:58 AM EST (2/2) 9:25 PM EST (2/2)
Length of Visible Light 11h 47m
Length of Day
10h 59m
Waxing Crescent, 11% of the Moon is Illuminated
Feb 2
Waxing Crescent
Feb 6
First Quarter
Feb 14
Full
Feb 22
Last Quarter
Mar 1
New

Hourly Weather History & Observations

Time (EST) Temp. Heat Index Dew Point Humidity Pressure Visibility Wind Dir Wind Speed Gust Speed Precip Events Conditions
12:15 AM 64.4 °F - - N/A% 30.14 in 3.0 mi Calm Calm - 0.00 in   Clear
12:35 AM 62.6 °F - - N/A% 30.14 in 4.0 mi Calm Calm - 0.00 in   Clear
12:55 AM 62.6 °F - - N/A% 30.14 in 0.8 mi Calm Calm - 0.00 in   Unknown
1:15 AM 62.6 °F - - N/A% 30.13 in 7.0 mi Calm Calm - 0.00 in   Clear
1:35 AM 62.6 °F - - N/A% 30.13 in 1.8 mi Calm Calm - 0.00 in   Clear
1:55 AM 62.6 °F - - N/A% 30.13 in 0.8 mi Calm Calm - 0.00 in   Unknown
2:15 AM 62.6 °F - - N/A% 30.12 in 0.2 mi Calm Calm - 0.00 in   Unknown
2:35 AM 62.6 °F - - N/A% 30.12 in 0.2 mi Calm Calm - 0.00 in   Unknown
2:55 AM 60.8 °F - - N/A% 30.11 in 0.2 mi Calm Calm - 0.00 in   Mostly Cloudy
3:15 AM 60.8 °F - - N/A% 30.11 in 0.2 mi Calm Calm - 0.00 in   Unknown
3:35 AM 60.8 °F - - N/A% 30.11 in 0.2 mi Calm Calm - 0.00 in   Mostly Cloudy
3:55 AM 60.8 °F - - N/A% 30.11 in 0.2 mi Calm Calm - 0.00 in   Overcast
4:15 AM 60.8 °F - - N/A% 30.11 in 0.2 mi Calm Calm - 0.00 in   Overcast
4:35 AM 60.8 °F - - N/A% 30.11 in 0.2 mi Calm Calm - 0.00 in   Overcast
4:55 AM 60.8 °F - - N/A% 30.11 in 0.2 mi Calm Calm - 0.00 in   Overcast
5:15 AM 60.8 °F - - N/A% 30.11 in 0.5 mi Calm Calm - 0.00 in   Overcast
5:35 AM 60.8 °F - - N/A% 30.11 in 0.2 mi Calm Calm - 0.00 in   Overcast
5:55 AM 60.8 °F - - N/A% 30.12 in 0.2 mi Calm Calm - 0.00 in   Overcast
6:15 AM 62.6 °F - - N/A% 30.12 in 0.2 mi Calm Calm - 0.00 in   Overcast
6:35 AM 62.6 °F - - N/A% 30.12 in 0.2 mi Calm Calm - 0.00 in   Overcast
6:55 AM 62.6 °F - - N/A% 30.13 in 0.5 mi Calm Calm - 0.00 in   Overcast
7:15 AM 60.8 °F - - N/A% 30.13 in 0.2 mi Calm Calm - 0.00 in   Mostly Cloudy
7:35 AM 60.8 °F - - N/A% 30.14 in 0.2 mi Calm Calm - 0.00 in   Unknown
7:55 AM 62.6 °F - - N/A% 30.14 in 0.2 mi Calm Calm - 0.00 in   Unknown
8:15 AM 64.4 °F - - N/A% 30.15 in 0.8 mi Calm Calm - 0.00 in   Unknown
8:35 AM 69.8 °F - - N/A% 30.15 in 8.0 mi Calm Calm - 0.00 in   Partly Cloudy
8:55 AM 71.6 °F - - N/A% 30.15 in 10.0 mi SE 6.9 mph - 0.00 in   Clear
9:15 AM 71.6 °F - - N/A% 30.16 in 9.0 mi SE 5.8 mph - 0.00 in   Clear
9:35 AM 73.4 °F - - N/A% 30.17 in 10.0 mi SE 6.9 mph - 0.00 in   Clear
9:55 AM 77.0 °F - 77.0 °F 100% 30.17 in 10.0 mi SE 8.1 mph - 0.00 in   Clear
10:15 AM 78.8 °F - 77.0 °F 94% 30.17 in 10.0 mi SE 10.4 mph - 0.00 in   Clear
10:35 AM 80.6 °F 85.4 °F 73.4 °F 79% 30.17 in 10.0 mi SE 9.2 mph - 0.00 in   Clear
10:55 AM 82.4 °F 87.2 °F 71.6 °F 70% 30.16 in 10.0 mi SSE 11.5 mph - 0.00 in   Clear
11:15 AM 82.4 °F 85.4 °F 68.0 °F 62% 30.15 in 10.0 mi ESE 11.5 mph - 0.00 in   Clear
11:55 AM 86.0 °F 87.3 °F 64.4 °F 48% 30.14 in 10.0 mi SE 11.5 mph - 0.00 in   Clear
12:15 PM 86.0 °F 86.6 °F 62.6 °F 45% 30.13 in 10.0 mi SE 9.2 mph - 0.00 in   Clear
12:35 PM 86.0 °F 86.6 °F 62.6 °F 45% 30.12 in 10.0 mi SSE 10.4 mph 17.3 mph 0.00 in   Clear
12:55 PM 84.2 °F 84.4 °F 60.8 °F 45% 30.11 in 10.0 mi ESE 9.2 mph - 0.00 in   Clear
1:15 PM 87.8 °F 87.6 °F 60.8 °F 40% 30.10 in 10.0 mi SE 11.5 mph - 0.00 in   Clear
1:35 PM 84.2 °F 84.4 °F 60.8 °F 45% 30.09 in 10.0 mi SE 11.5 mph - 0.00 in   Partly Cloudy
1:55 PM 87.8 °F 87.6 °F 60.8 °F 40% 30.08 in 10.0 mi SE 8.1 mph 23.0 mph 0.00 in   Scattered Clouds
2:15 PM 87.8 °F 87.1 °F 59.0 °F 38% 30.07 in 10.0 mi SE 9.2 mph 16.1 mph 0.00 in   Partly Cloudy
2:35 PM 87.8 °F 86.5 °F 57.2 °F 35% 30.06 in 10.0 mi SE 11.5 mph - 0.00 in   Clear
2:55 PM 87.8 °F 87.1 °F 59.0 °F 38% 30.06 in 10.0 mi SE 6.9 mph - 0.00 in   Clear
3:15 PM 89.6 °F 88.1 °F 57.2 °F 33% 30.05 in 10.0 mi SE 10.4 mph - 0.00 in   Partly Cloudy
3:35 PM 89.6 °F 87.7 °F 55.4 °F 31% 30.05 in 10.0 mi SSE 6.9 mph - 0.00 in   Clear
3:55 PM 87.8 °F 86.5 °F 57.2 °F 35% 30.05 in 10.0 mi SE 5.8 mph - 0.00 in   Clear
4:15 PM 87.8 °F 87.6 °F 60.8 °F 40% 30.05 in 10.0 mi ESE 5.8 mph - 0.00 in   Clear
4:35 PM 86.0 °F 86.1 °F 60.8 °F 43% 30.05 in 10.0 mi SE 8.1 mph 16.1 mph 0.00 in   Partly Cloudy
4:55 PM 84.2 °F 85.0 °F 62.6 °F 48% 30.05 in 10.0 mi ESE 11.5 mph - 0.00 in   Partly Cloudy
5:15 PM 84.2 °F 85.6 °F 64.4 °F 51% 30.06 in 10.0 mi SE 10.4 mph - 0.00 in   Clear
5:35 PM 82.4 °F 83.9 °F 64.4 °F 54% 30.06 in 10.0 mi ESE 8.1 mph - 0.00 in   Clear
5:55 PM 80.6 °F 82.3 °F 64.4 °F 58% 30.06 in 10.0 mi ESE 5.8 mph - 0.00 in   Clear
6:15 PM 78.8 °F - 64.4 °F 61% 30.07 in 10.0 mi ESE 4.6 mph - 0.00 in   Clear
6:35 PM 75.2 °F - 66.2 °F 73% 30.07 in 10.0 mi East 5.8 mph - 0.00 in   Clear
6:55 PM 75.2 °F - 66.2 °F 73% 30.08 in 10.0 mi ESE 4.6 mph - 0.00 in   Clear
7:15 PM 73.4 °F - 68.0 °F 83% 30.08 in 10.0 mi East 5.8 mph - 0.00 in   Clear
7:35 PM 73.4 °F - 69.8 °F 88% 30.08 in 10.0 mi East 5.8 mph - 0.00 in   Clear
7:55 PM 71.6 °F - 69.8 °F 94% 30.09 in 10.0 mi East 5.8 mph - 0.00 in   Clear
8:15 PM 71.6 °F - 71.6 °F 100% 30.09 in 10.0 mi East 5.8 mph - 0.00 in   Clear
8:35 PM 71.6 °F - 71.6 °F 100% 30.09 in 10.0 mi ESE 6.9 mph - 0.00 in   Clear
8:55 PM 71.6 °F - 71.6 °F 100% 30.09 in 10.0 mi ESE 5.8 mph - 0.00 in   Clear
9:15 PM 71.6 °F - 71.6 °F 100% 30.09 in 10.0 mi ESE 5.8 mph - 0.00 in   Clear
9:35 PM 71.6 °F - 71.6 °F 100% 30.09 in 10.0 mi ESE 6.9 mph - 0.00 in   Clear
9:55 PM 69.8 °F - 69.8 °F 100% 30.09 in 10.0 mi ESE 6.9 mph - 0.00 in   Clear
10:15 PM 69.8 °F - - N/A% 30.10 in 10.0 mi ESE 8.1 mph - 0.00 in   Clear
10:35 PM 69.8 °F - - N/A% 30.09 in 10.0 mi ESE 6.9 mph - 0.00 in   Clear
10:55 PM 69.8 °F - - N/A% 30.10 in 10.0 mi ESE 4.6 mph - 0.00 in   Clear
11:15 PM 69.8 °F - - N/A% 30.10 in 10.0 mi ESE 5.8 mph - 0.00 in   Clear
11:35 PM 69.8 °F - - N/A% 30.10 in 10.0 mi Calm Calm - 0.00 in   Clear
11:55 PM 69.8 °F - - N/A% 30.09 in 10.0 mi East 4.6 mph - 0.00 in   Clear